EW7070 Weather Reports


time (UTC)temp
C
wind
direction
speed
KPH
gust
KPH
rain 1hr
cm
rain 24hr
cm
rain mn
cm
humidity
%
barometer
mb
20260906152340 12 249 8.0 19.3 0.00 0.00 0.00 58 1026.5
20260906151816 12 256 6.4 14.5 0.00 0.00 0.00 63 1026.5
20260906151315 12 145 6.4 14.5 0.00 0.00 0.00 63 1026.7
20260906150747 12 182 6.4 14.5 0.00 0.00 0.00 65 1026.7
20260906150226 12 191 4.8 12.9 0.00 0.00 0.00 64 1026.7
20260906145952 12 112 6.4 12.9 0.00 0.00 0.00 63 1026.7
20260906145157 12 276 6.4 16.1 0.00 0.00 0.00 67 1026.7
20260906144634 12 187 6.4 16.1 0.00 0.00 0.00 68 1026.7
20260906144627 12 288 6.4 16.1 0.00 0.00 0.00 66 1026.8
20260906143558 12 182 4.8 12.9 0.00 0.00 0.00 65 1026.8
20260906143057 12 264 4.8 11.3 0.00 0.00 0.00 67 1026.8
20260906142542 12 182 4.8 11.3 0.00 0.00 0.00 65 1026.8
20260906142041 12 280 4.8 12.9 0.00 0.00 0.00 66 1026.7
20260906141539 12 275 4.8 12.9 0.00 0.00 0.00 70 1026.8
20260906141032 11 208 6.4 12.9 0.00 0.00 0.00 67 1026.8
20260906140759 11 106 8.0 14.5 0.00 0.00 0.00 66 1026.9
20260906140004 11 254 6.4 16.1 0.00 0.00 0.00 71 1026.8
20260906135458 11 286 4.8 11.3 0.00 0.00 0.00 71 1026.9
20260906134955 11 182 3.2 11.3 0.00 0.00 0.00 71 1026.8
20260906134431 11 201 6.4 12.9 0.00 0.00 0.00 70 1026.9
20260906133921 11 267 6.4 17.7 0.00 0.00 0.00 69 1026.8
20260906133404 11 177 4.8 12.9 0.00 0.00 0.00 69 1026.9
20260906132903 11 182 3.2 8.0 0.00 0.00 0.00 70 1026.9
20260906132404 11 159 4.8 16.1 0.00 0.00 0.00 71 1026.9
20260906131836 11 182 4.8 16.1 0.00 0.00 0.00 68 1026.8
20260906131539 11 208 4.8 9.7 0.00 0.00 0.00 70 1026.9
20260906130803 11 287 3.2 9.7 0.00 0.00 0.00 73 1026.8
20260906130508 11 195 3.2 12.9 0.00 0.00 0.00 73 1026.8
20260906125734 11 200 3.2 12.9 0.00 0.00 0.00 72 1026.8
20260906125222 10 142 3.2 8.0 0.00 0.00 0.00 73 1026.8
20260906124721 10 218 4.8 12.9 0.00 0.00 0.00 74 1026.8
20260906124219 10 275 4.8 12.9 0.00 0.00 0.00 73 1026.9
20260906123651 10 236 4.8 11.3 0.00 0.00 0.00 75 1026.8
20260906123142 10 149 4.8 12.9 0.00 0.00 0.00 76 1026.9
20260906122847 10 219 6.4 12.9 0.00 0.00 0.00 74 1026.8
20260906122048 10 232 4.8 12.9 0.00 0.00 0.00 77 1027.0
20260906121548 10 118 3.2 9.7 0.00 0.00 0.00 77 1026.8
20260906121241 9 145 3.2 11.3 0.00 0.00 0.00 79 1026.8
20260906120508 9 249 4.8 11.3 0.00 0.00 0.00 76 1026.9
20260906115939 9 262 4.8 11.3 0.00 0.00 0.00 77 1026.6
20260906115412 9 208 4.8 11.3 0.00 0.00 0.00 77 1026.7
20260906114844 9 206 3.2 9.7 0.00 0.00 0.00 77 1026.5
20260906114336 9 216 4.8 12.9 0.00 0.00 0.00 78 1026.5
20260906113833 8 251 6.4 12.9 0.00 0.00 0.00 80 1026.5
20260906113602 8 305 6.4 12.9 0.00 0.00 0.00 78 1026.4
20260906113036 8 266 6.4 12.9 0.00 0.00 0.00 78 1026.6
20260906112236 8 272 6.4 12.9 0.00 0.00 0.00 79 1026.6
20260906111724 8 272 6.4 12.9 0.00 0.00 0.00 79 1026.7
20260906111225 8 269 4.8 9.7 0.00 0.00 0.00 79 1026.7
20260906110718 8 280 3.2 11.3 0.00 0.00 0.00 81 1026.8
20260906110215 8 255 1.6 11.3 0.00 0.00 0.00 81 1026.7
20260906105926 7 211 1.6 4.8 0.00 0.00 0.00 85 1026.7
20260906105155 7 209 0.0 4.8 0.00 0.00 0.00 87 1026.8
20260906104655 6 88 0.0 1.6 0.00 0.00 0.00 92 1026.7
20260906104152 6 88 0.0 3.2 0.00 0.00 0.00 94 1026.7
20260906103649 6 88 0.0 3.2 0.00 0.00 0.00 94 1026.6
20260906103145 5 272 0.0 0.0 0.00 0.00 0.00 94 1026.7
20260906102618 5 272 0.0 0.0 0.00 0.00 0.00 93 1026.7
20260906102108 5 272 0.0 0.0 0.00 0.00 0.00 93 1026.6
20260906101608 5 272 0.0 1.6 0.00 0.00 0.00 92 1026.6
20260906101105 4 272 0.0 3.2 0.00 0.00 0.00 92 1026.4
20260906100546 4 272 0.0 3.2 0.00 0.00 0.00 91 1026.1
20260906100316 4 272 0.0 3.2 0.00 0.00 0.00 90 1026.0
20260906095545 4 272 0.0 3.2 0.00 0.00 0.00 90 1026.0
20260906095250 4 272 0.0 1.6 0.00 0.00 0.00 89 1025.8
20260906094504 4 272 0.0 1.6 0.00 0.00 0.00 89 1025.8
20260906094004 5 272 0.0 1.6 0.00 0.00 0.00 89 1025.7
20260906093439 5 272 1.6 4.8 0.00 0.00 0.00 89 1025.7
20260906092941 5 272 1.6 4.8 0.00 0.00 0.00 88 1025.6
20260906092439 5 268 0.0 3.2 0.00 0.00 0.00 87 1025.5
20260906091937 5 268 0.0 3.2 0.00 0.00 0.00 87 1025.5
20260906091438 5 266 1.6 3.2 0.00 0.00 0.00 86 1025.3
20260906091210 5 266 0.0 3.2 0.00 0.00 0.00 86 1025.2
20260906090412 5 143 1.6 6.4 0.00 0.00 0.00 85 1025.2
20260906085910 6 230 1.6 6.4 0.00 0.00 0.00 85 1025.1
20260906085338 6 308 0.0 1.6 0.00 0.00 0.00 83 1025.0
20260906084833 6 308 0.0 3.2 0.00 0.00 0.00 83 1024.9
20260906084332 6 308 1.6 3.2 0.00 0.00 0.00 83 1024.8
20260906083804 6 267 1.6 3.2 0.00 0.00 0.00 83 1024.8
20260906083236 7 276 0.0 3.2 0.00 0.00 0.00 82 1024.8
20260906082732 7 276 1.6 3.2 0.00 0.00 0.00 81 1024.7
20260906082231 7 276 1.6 3.2 0.00 0.00 0.00 80 1024.6
20260906081702 7 276 1.6 4.8 0.00 0.00 0.00 80 1024.5
20260906081135 8 270 1.6 3.2 0.00 0.00 0.00 79 1024.7
20260906080619 8 220 1.6 6.4 0.00 0.00 0.00 77 1024.6
20260906080121 8 247 3.2 4.8 0.00 0.00 0.00 76 1024.5
20260906075824 8 232 4.8 12.9 0.00 0.00 0.00 76 1024.5
20260906075051 8 229 6.4 14.5 0.00 0.00 0.00 76 1024.6
20260906074523 8 226 4.8 14.5 0.00 0.00 0.00 77 1024.4
20260906074228 8 276 3.2 6.4 0.00 0.00 0.00 78 1024.3
20260906073428 8 245 4.8 14.5 0.00 0.00 0.00 78 1024.5
20260906072924 8 261 4.8 14.5 0.00 0.00 0.00 78 1024.4
20260906072354 8 225 3.2 8.0 0.00 0.00 0.00 79 1024.2
20260906072119 8 247 4.8 8.0 0.00 0.00 0.00 79 1024.2
20260906071345 8 237 3.2 9.7 0.00 0.00 0.00 79 1024.4
20260906070818 8 243 3.2 4.8 0.00 0.00 0.00 79 1024.3
20260906070258 8 237 3.2 4.8 0.00 0.00 0.00 79 1024.3
20260906065732 9 228 3.2 9.7 0.00 0.00 0.00 79 1024.2
20260906065203 9 235 1.6 9.7 0.00 0.00 0.00 79 1024.3
20260906064635 9 261 1.6 6.4 0.00 0.00 0.00 79 1024.3
20260906064133 10 257 1.6 3.2 0.00 0.00 0.00 77 1024.1
20260906063602 10 257 1.6 4.8 0.00 0.00 0.00 77 1024.0
20260906063037 10 252 1.6 4.8 0.00 0.00 0.00 75 1024.0
20260906062510 10 244 1.6 9.7 0.00 0.00 0.00 75 1024.0
20260906062004 10 223 4.8 9.7 0.00 0.00 0.00 75 1024.1
20260906061439 10 187 4.8 9.7 0.00 0.00 0.00 75 1024.1
20260906060923 10 240 3.2 9.7 0.00 0.00 0.00 75 1024.1
20260906060651 10 250 3.2 8.0 0.00 0.00 0.00 76 1024.0
20260906055921 10 251 4.8 8.0 0.00 0.00 0.00 76 1024.0
20260906055418 10 236 3.2 8.0 0.00 0.00 0.00 76 1024.0
20260906054916 10 260 3.2 12.9 0.00 0.00 0.00 76 1024.0
20260906054350 10 276 4.8 12.9 0.00 0.00 0.00 76 1024.0
20260906053825 10 212 4.8 14.5 0.00 0.00 0.00 77 1024.0
20260906053323 10 251 4.8 14.5 0.00 0.00 0.00 79 1023.9
20260906052810 10 253 4.8 11.3 0.00 0.00 0.00 81 1023.8
20260906052241 10 211 4.8 11.3 0.00 0.00 0.00 82 1023.6
20260906051717 10 269 4.8 9.7 0.00 0.00 0.00 84 1023.6
20260906051206 10 229 4.8 9.7 0.00 0.00 0.00 87 1023.4
20260906050638 10 243 3.2 9.7 0.00 0.00 0.00 91 1023.2
20260906050136 10 258 1.6 3.2 0.00 0.00 0.00 93 1023.1
20260906045607 10 249 0.0 3.2 0.00 0.00 0.00 94 1023.0
20260906045336 10 249 0.0 0.0 0.00 0.00 0.00 94 1023.0
20260906044547 10 249 0.0 0.0 0.00 0.00 0.00 94 1023.1
20260906044047 10 249 0.0 0.0 0.00 0.00 0.00 94 1022.8
20260906043545 10 249 0.0 3.2 0.00 0.00 0.00 94 1022.8
20260906043047 10 249 1.6 3.2 0.00 0.00 0.00 93 1022.7
20260906042750 9 286 0.0 1.6 0.00 0.00 0.00 93 1022.6
20260906042018 9 286 0.0 0.0 0.00 0.00 0.00 93 1022.5
20260906041514 9 286 0.0 0.0 0.00 0.00 0.00 93 1022.4
20260906041015 10 286 0.0 1.6 0.00 0.00 0.00 93 1022.4
20260906040449 10 286 0.0 3.2 0.00 0.00 0.00 93 1022.3
20260906035946 10 286 0.0 3.2 0.00 0.00 0.00 93 1022.4
20260906035448 10 286 0.0 1.6 0.00 0.00 0.00 93 1022.3
20260906034941 10 286 0.0 1.6 0.00 0.00 0.00 93 1022.2
20260906034712 10 286 0.0 0.0 0.00 0.00 0.00 93 1022.2
20260906033940 10 286 0.0 0.0 0.00 0.00 0.00 93 1022.2
20260906033417 10 286 0.0 0.0 0.00 0.00 0.00 93 1022.2
20260906032912 10 286 0.0 1.6 0.00 0.00 0.00 93 1022.1
20260906032349 10 286 0.0 1.6 0.00 0.00 0.00 92 1022.2
20260906031826 10 286 0.0 1.6 0.00 0.00 0.00 92 1022.2
20260906031255 10 286 0.0 1.6 0.00 0.00 0.00 92 1022.1
20260906030752 10 286 0.0 0.0 0.00 0.00 0.00 92 1022.1
20260906030249 10 286 0.0 1.6 0.00 0.00 0.00 92 1021.9
20260906025744 10 286 0.0 1.6 0.00 0.00 0.00 91 1021.9
20260906025216 10 286 0.0 1.6 0.00 0.00 0.00 90 1021.9
20260906024944 10 286 0.0 3.2 0.00 0.00 0.00 90 1022.0
20260906024211 10 286 0.0 1.6 0.00 0.00 0.00 89 1021.8
20260906023933 10 286 1.6 3.2 0.00 0.00 0.00 90 1021.6
20260906023158 10 286 0.0 3.2 0.00 0.00 0.00 90 1021.7
20260906022630 10 141 0.0 0.0 0.00 0.00 0.00 90 1021.8
20260906022351 10 141 0.0 1.6 0.00 0.00 0.00 90 1021.6
20260906021617 10 141 0.0 1.6 0.00 0.00 0.00 91 1021.5
20260906021105 11 141 0.0 0.0 0.00 0.00 0.00 91 1021.5
20260906020604 11 141 0.0 0.0 0.00 0.00 0.00 90 1021.4
20260906020104 11 141 0.0 0.0 0.00 0.00 0.00 90 1021.4
20260906015536 11 141 0.0 0.0 0.00 0.00 0.00 89 1021.3
20260906015033 11 141 0.0 3.2 0.00 0.00 0.00 89 1021.0
20260906014522 11 141 0.0 3.2 0.00 0.00 0.00 88 1021.2
20260906014020 11 101 0.0 0.0 0.00 0.00 0.00 88 1021.2
20260906013506 11 101 0.0 3.2 0.00 0.00 0.00 88 1021.1
20260906013005 11 101 1.6 3.2 0.00 0.00 0.00 88 1021.0
20260906012453 11 177 1.6 3.2 0.00 0.00 0.00 89 1020.9
20260906011952 11 177 1.6 4.8 0.00 0.00 0.00 89 1020.9
20260906011452 11 147 1.6 9.7 0.00 0.00 0.00 89 1021.0
20260906010946 11 172 1.6 9.7 0.00 0.00 0.00 89 1020.9
20260906010715 11 299 0.0 1.6 0.00 0.00 0.00 89 1020.8
20260906005917 11 299 0.0 1.6 0.00 0.00 0.00 88 1020.7
20260906005410 11 299 1.6 3.2 0.00 0.00 0.00 88 1020.7
20260906004907 11 298 1.6 4.8 0.00 0.00 0.00 88 1020.5
20260906004343 11 245 1.6 4.8 0.00 0.00 0.00 88 1020.5
20260906004108 11 285 1.6 8.0 0.00 0.00 0.00 88 1020.4
20260906003311 11 149 1.6 8.0 0.00 0.00 0.00 88 1020.4
20260906002808 11 248 1.6 6.4 0.00 0.00 0.00 88 1020.3
20260906002240 11 245 3.2 6.4 0.00 0.00 0.00 89 1020.2
20260906001711 11 291 3.2 8.0 0.00 0.00 0.00 91 1020.0
20260906001209 11 212 3.2 6.4 0.00 0.00 0.00 91 1020.1
20260906000640 11 187 1.6 3.2 0.00 0.00 0.00 89 1019.7
20260906000403 11 272 0.0 1.6 0.00 0.00 0.00 88 1019.6
20260905235858 11 272 0.0 0.0 0.00 0.00 0.00 87 1019.5
20260905235125 11 272 0.0 0.0 0.00 0.00 0.00 87 1019.5
20260905234615 12 272 0.0 3.2 0.00 0.00 0.00 87 1019.4
20260905234112 12 272 0.0 3.2 0.00 0.00 0.00 87 1019.3
20260905233545 12 272 0.0 1.6 0.00 0.00 0.00 87 1019.3
20260905233039 12 271 0.0 0.0 0.00 0.00 0.00 85 1019.1
20260905232539 12 271 0.0 1.6 0.00 0.00 0.00 85 1019.1
20260905232013 12 272 0.0 3.2 0.00 0.00 0.00 85 1019.1
20260905231443 12 271 1.6 3.2 0.00 0.00 0.00 85 1018.9
20260905230914 12 272 1.6 3.2 0.00 0.00 0.00 85 1018.9
20260905230413 12 305 0.0 3.2 0.00 0.00 0.00 84 1018.9
20260905230119 13 305 0.0 3.2 0.00 0.00 0.00 83 1018.7
20260905225317 13 305 0.0 3.2 0.00 0.00 0.00 83 1018.8
20260905224808 13 305 0.0 3.2 0.00 0.00 0.00 81 1018.6
20260905224801 13 305 0.0 1.6 0.00 0.00 0.00 81 1018.7
20260905223801 13 305 0.0 3.2 0.00 0.00 0.00 82 1018.6
20260905223507 13 305 0.0 1.6 0.00 0.00 0.00 80 1018.6
20260905222711 13 305 1.6 4.8 0.00 0.00 0.00 80 1018.5
20260905222144 13 295 1.6 4.8 0.00 0.00 0.00 80 1018.4
20260905221612 13 289 1.6 3.2 0.00 0.00 0.00 80 1018.4
20260905221049 13 283 1.6 3.2 0.00 0.00 0.00 78 1018.3
20260905221023 14 303 1.6 3.2 0.00 0.00 0.00 79 1018.3
20260905220009 14 303 1.6 3.2 0.00 0.00 0.00 78 1018.2
20260905215511 14 303 3.2 4.8 0.00 0.00 0.00 78 1018.3
20260905215002 14 301 1.6 3.2 0.00 0.00 0.00 77 1018.2
20260905214501 14 297 3.2 4.8 0.00 0.00 0.00 77 1018.1
20260905214230 15 303 1.6 4.8 0.00 0.00 0.00 79 1018.1
20260905213447 15 303 1.6 3.2 0.00 0.00 0.00 78 1018.0
20260905212947 15 295 1.6 3.2 0.00 0.00 0.00 76 1018.1
20260905212423 15 295 1.6 3.2 0.00 0.00 0.00 76 1018.0
20260905211920 15 318 1.6 4.8 0.00 0.00 0.00 77 1017.7
20260905211411 15 299 1.6 3.2 0.00 0.00 0.00 75 1017.6
20260905210856 16 295 1.6 3.2 0.00 0.00 0.00 74 1017.6
20260905210324 16 295 1.6 3.2 0.00 0.00 0.00 72 1017.7
20260905205314 17 295 1.6 4.8 0.00 0.00 0.00 68 1017.5
20260905204755 17 295 1.6 4.8 0.00 0.00 0.00 64 1017.6
20260905204513 17 268 1.6 4.8 0.00 0.00 0.00 62 1017.5
20260905203721 17 293 1.6 3.2 0.00 0.00 0.00 65 1017.6
20260905203215 18 293 1.6 3.2 0.00 0.00 0.00 64 1017.5
20260905202946 18 274 0.0 3.2 0.00 0.00 0.00 63 1017.2
20260905202215 18 281 0.0 3.2 0.00 0.00 0.00 63 1017.2
20260905201652 18 235 1.6 3.2 0.00 0.00 0.00 58 1017.2
20260905201125 18 212 1.6 4.8 0.00 0.00 0.00 56 1017.1
20260905200602 18 257 3.2 6.4 0.00 0.00 0.00 57 1017.2
20260905200038 18 263 3.2 12.9 0.00 0.00 0.00 57 1016.9
20260905195518 18 253 4.8 12.9 0.00 0.00 0.00 56 1016.7
20260905194959 18 267 4.8 14.5 0.00 0.00 0.00 55 1016.9
20260905194455 18 260 4.8 14.5 0.00 0.00 0.00 56 1016.8
20260905193954 18 269 3.2 9.7 0.00 0.00 0.00 54 1016.8
20260905193452 18 249 3.2 8.0 0.00 0.00 0.00 58 1016.7
20260905192952 18 268 3.2 8.0 0.00 0.00 0.00 55 1016.6
20260905192725 18 274 4.8 9.7 0.00 0.00 0.00 56 1016.6
20260905192205 18 297 6.4 14.5 0.00 0.00 0.00 53 1016.5
20260905191406 18 273 6.4 14.5 0.00 0.00 0.00 54 1016.5
20260905190842 18 177 4.8 12.9 0.00 0.00 0.00 54 1016.4
20260905190316 18 278 4.8 9.7 0.00 0.00 0.00 56 1016.2
20260905185803 18 220 4.8 12.9 0.00 0.00 0.00 51 1016.2
20260905185306 19 255 4.8 14.5 0.00 0.00 0.00 53 1016.1
20260905184738 19 206 4.8 14.5 0.00 0.00 0.00 49 1016.1
20260905184227 20 201 6.4 16.1 0.00 0.00 0.00 50 1016.1
20260905183700 20 228 8.0 16.1 0.00 0.00 0.00 50 1016.0
20260905183147 20 326 8.0 20.9 0.00 0.00 0.00 52 1016.0
20260905182647 20 287 3.2 20.9 0.00 0.00 0.00 53 1016.0
20260905182118 20 47 3.2 14.5 0.00 0.00 0.00 58 1016.1
20260905181835 19 340 4.8 14.5 0.00 0.00 0.00 57 1016.1
20260905181105 19 321 6.4 14.5 0.00 0.00 0.00 60 1016.1
20260905180604 19 320 6.4 14.5 0.00 0.00 0.00 56 1016.1
20260905180038 20 271 4.8 14.5 0.00 0.00 0.00 55 1016.1
20260905175524 20 276 4.8 14.5 0.00 0.00 0.00 56 1016.1
20260905175025 20 280 3.2 16.1 0.00 0.00 0.00 60 1016.1
20260905174454 20 283 3.2 16.1 0.00 0.00 0.00 58 1016.1
20260905173930 19 177 4.8 14.5 0.00 0.00 0.00 58 1016.2
20260905173402 19 297 4.8 14.5 0.00 0.00 0.00 58 1016.1
20260905172835 19 310 4.8 11.3 0.00 0.00 0.00 61 1016.3
20260905172310 19 318 3.2 11.3 0.00 0.00 0.00 59 1016.3
20260905171758 19 293 4.8 9.7 0.00 0.00 0.00 64 1016.3
20260905171254 19 164 4.8 12.9 0.00 0.00 0.00 58 1016.3
20260905170755 19 237 4.8 12.9 0.00 0.00 0.00 61 1016.4
20260905170255 19 115 3.2 12.9 0.00 0.00 0.00 59 1016.5
20260905165753 18 251 3.2 12.9 0.00 0.00 0.00 62 1016.7
20260905165229 18 213 3.2 11.3 0.00 0.00 0.00 61 1016.7
20260905164729 18 311 4.8 14.5 0.00 0.00 0.00 63 1016.7
20260905164445 18 304 6.4 14.5 0.00 0.00 0.00 63 1017.0
20260905163712 18 235 6.4 12.9 0.00 0.00 0.00 63 1016.9
20260905163211 18 251 4.8 12.9 0.00 0.00 0.00 63 1016.8
20260905162912 18 322 4.8 16.1 0.00 0.00 0.00 63 1016.9
20260905162115 18 253 4.8 16.1 0.00 0.00 0.00 65 1016.7
20260905161553 18 272 4.8 12.9 0.00 0.00 0.00 64 1016.8
20260905161035 18 269 4.8 12.9 0.00 0.00 0.00 67 1016.9
20260905160530 18 140 3.2 12.9 0.00 0.00 0.00 67 1016.9
20260905160028 18 113 3.2 9.7 0.00 0.00 0.00 69 1017.0
20260905155731 17 280 6.4 14.5 0.00 0.00 0.00 67 1017.0
20260905155228 17 285 6.4 16.1 0.00 0.00 0.00 68 1017.1
20260905154429 17 255 4.8 16.1 0.00 0.00 0.00 68 1017.0
20260905153926 17 138 4.8 12.9 0.00 0.00 0.00 68 1017.1
20260905153415 17 258 4.8 12.9 0.00 0.00 0.00 66 1017.3
20260905152850 17 279 8.0 22.5 0.00 0.00 0.00 71 1017.4